| time (UTC) | temp F | wind direction | speed MPH | gust MPH | rain 1hr in | rain 24hr in | rain mn in | humidity % | barometer mb |
| 20260505004003 | 61 | 329 | 2.0 | 16.0 | 0.00 | 0.00 | 0.00 | 38 | 996.3 |
| 20260505002004 | 62 | 309 | 5.0 | 10.0 | 0.00 | 0.00 | 0.00 | 35 | 995.7 |
| 20260505001003 | 63 | 321 | 5.0 | 23.0 | 0.00 | 0.00 | 0.00 | 35 | 995.5 |
| 20260505000004 | 63 | 321 | 5.0 | 15.0 | 0.00 | 0.00 | 0.00 | 34 | 995.5 |
| 20260504235003 | 64 | 270 | 7.0 | 14.0 | 0.00 | 0.00 | 0.00 | 33 | 995.5 |
| 20260504234004 | 64 | 307 | 5.0 | 15.0 | 0.00 | 0.00 | 0.00 | 33 | 995.4 |
| 20260504233004 | 65 | 267 | 9.0 | 17.0 | 0.00 | 0.00 | 0.00 | 32 | 995.2 |
| 20260504231004 | 66 | 318 | 7.0 | 17.0 | 0.00 | 0.00 | 0.00 | 30 | 995.0 |
| 20260504230004 | 67 | 327 | 6.0 | 16.0 | 0.00 | 0.00 | 0.00 | 29 | 994.9 |
| 20260504225004 | 66 | 284 | 8.0 | 25.0 | 0.00 | 0.00 | 0.00 | 30 | 995.1 |
| 20260504221004 | 68 | 289 | 4.0 | 14.0 | 0.00 | 0.00 | 0.00 | 29 | 994.4 |
| 20260504220004 | 70 | 278 | 7.0 | 20.0 | 0.00 | 0.00 | 0.00 | 26 | 994.3 |
| 20260504215004 | 68 | 257 | 4.0 | 13.0 | 0.00 | 0.00 | 0.00 | 27 | 994.1 |
| 20260504214003 | 68 | 278 | 5.0 | 21.0 | 0.00 | 0.00 | 0.00 | 27 | 994.0 |
| 20260504213004 | 69 | 283 | 9.0 | 17.0 | 0.00 | 0.00 | 0.00 | 26 | 993.8 |
| 20260504212004 | 70 | 17 | 4.0 | 18.0 | 0.00 | 0.01 | 0.00 | 25 | 993.4 |
| 20260504211004 | 70 | 278 | 6.0 | 15.0 | 0.00 | 0.01 | 0.00 | 24 | 993.4 |
| 20260504210004 | 71 | 277 | 9.0 | 20.0 | 0.00 | 0.01 | 0.00 | 27 | 993.4 |
| 20260504205004 | 71 | 248 | 7.0 | 20.0 | 0.00 | 0.01 | 0.00 | 27 | 993.0 |
| 20260504204004 | 71 | 282 | 5.0 | 22.0 | 0.00 | 0.01 | 0.00 | 28 | 993.1 |
| 20260504203004 | 71 | 284 | 6.0 | 22.0 | 0.00 | 0.01 | 0.00 | 29 | 993.1 |
| 20260504202004 | 71 | 258 | 6.0 | 17.0 | 0.00 | 0.01 | 0.00 | 26 | 993.1 |
| 20260504201004 | 70 | 260 | 10.0 | 24.0 | 0.00 | 0.01 | 0.00 | 25 | 993.1 |
| 20260504200004 | 71 | 266 | 12.0 | 26.0 | 0.00 | 0.01 | 0.00 | 24 | 993.3 |
| 20260504195004 | 72 | 259 | 10.0 | 22.0 | 0.00 | 0.01 | 0.00 | 24 | 993.0 |
| 20260504194004 | 72 | 249 | 9.0 | 26.0 | 0.00 | 0.01 | 0.00 | 25 | 992.9 |
| 20260504193005 | 72 | 265 | 6.0 | 23.0 | 0.00 | 0.01 | 0.00 | 30 | 992.8 |
| 20260504185004 | 72 | 263 | 10.0 | 24.0 | 0.00 | 0.01 | 0.00 | 32 | 992.4 |
| 20260504184004 | 73 | 305 | 6.0 | 29.0 | 0.00 | 0.01 | 0.00 | 33 | 992.6 |
| 20260504183003 | 72 | 273 | 6.0 | 16.0 | 0.00 | 0.01 | 0.00 | 35 | 992.5 |
| 20260504182003 | 72 | 259 | 7.0 | 22.0 | 0.00 | 0.01 | 0.00 | 35 | 992.4 |
| 20260504181004 | 72 | 282 | 10.0 | 25.0 | 0.00 | 0.01 | 0.00 | 34 | 992.4 |
| 20260504180004 | 72 | 258 | 9.0 | 22.0 | 0.00 | 0.01 | 0.00 | 35 | 992.2 |
| 20260504175003 | 71 | 261 | 12.0 | 22.0 | 0.00 | 0.01 | 0.00 | 36 | 992.3 |
| 20260504174004 | 71 | 263 | 6.0 | 21.0 | 0.00 | 0.01 | 0.00 | 36 | 992.5 |
| 20260504173004 | 72 | 259 | 7.0 | 23.0 | 0.00 | 0.01 | 0.00 | 36 | 992.5 |
| 20260504172004 | 71 | 282 | 8.0 | 20.0 | 0.00 | 0.01 | 0.00 | 37 | 992.6 |
| 20260504171004 | 71 | 259 | 9.0 | 20.0 | 0.00 | 0.01 | 0.00 | 36 | 992.6 |
| 20260504151004 | 67 | 250 | 6.0 | 17.0 | 0.00 | 0.01 | 0.00 | 38 | 992.6 |
| 20260504141004 | 58 | 255 | 5.0 | 10.0 | 0.00 | 0.01 | 0.00 | 49 | 994.2 |
| 20260504081004 | 38 | 59 | 0.0 | 2.0 | 0.00 | 0.01 | 0.00 | 92 | 1000.1 |
| 20260504050004 | 43 | 294 | 0.0 | 2.0 | 0.00 | 0.01 | 0.00 | 73 | 1002.6 |
| 20260504045004 | 44 | 287 | 0.0 | 1.0 | 0.00 | 0.01 | 0.01 | 69 | 1002.7 |
| 20260504044003 | 44 | 12 | 0.0 | 2.0 | 0.00 | 0.01 | 0.01 | 66 | 1002.6 |
| 20260504043004 | 44 | 274 | 1.0 | 1.0 | 0.00 | 0.01 | 0.01 | 64 | 1002.7 |
| 20260504042004 | 44 | 295 | 0.0 | 1.0 | 0.00 | 0.01 | 0.01 | 62 | 1002.8 |
| 20260504035004 | 46 | 294 | 0.0 | 1.0 | 0.00 | 0.01 | 0.01 | 53 | 1003.2 |
| 20260504034004 | 46 | 299 | 0.0 | 1.0 | 0.00 | 0.01 | 0.01 | 52 | 1003.1 |
| 20260504033004 | 47 | 330 | 0.0 | 1.0 | 0.00 | 0.01 | 0.01 | 50 | 1003.3 |
| 20260504030004 | 51 | 316 | 0.0 | 1.0 | 0.00 | 0.01 | 0.01 | 46 | 1003.3 |
| 20260504025004 | 51 | 0 | 0.0 | 1.0 | 0.00 | 0.01 | 0.01 | 44 | 1003.3 |
| 20260504024004 | 53 | 326 | 0.0 | 1.0 | 0.00 | 0.01 | 0.01 | 43 | 1003.2 |
| 20260504023004 | 54 | 330 | 0.0 | 1.0 | 0.00 | 0.01 | 0.01 | 42 | 1003.2 |
| 20260504022004 | 56 | 38 | 0.0 | 2.0 | 0.00 | 0.01 | 0.01 | 40 | 1003.1 |
| 20260504021003 | 57 | 3 | 1.0 | 3.0 | 0.00 | 0.01 | 0.01 | 40 | 1003.1 |
| 20260504020003 | 58 | 353 | 2.0 | 3.0 | 0.00 | 0.01 | 0.01 | 42 | 1002.9 |
| 20260504015003 | 58 | 47 | 1.0 | 2.0 | 0.00 | 0.01 | 0.01 | 40 | 1002.7 |
| 20260504014004 | 60 | 10 | 2.0 | 3.0 | 0.00 | 0.01 | 0.01 | 38 | 1002.6 |
| 20260504013004 | 61 | 21 | 2.0 | 6.0 | 0.00 | 0.01 | 0.01 | 37 | 1002.5 |
| 20260504012004 | 61 | 38 | 2.0 | 5.0 | 0.00 | 0.01 | 0.01 | 36 | 1002.5 |
| 20260504011004 | 63 | 358 | 2.0 | 5.0 | 0.00 | 0.01 | 0.01 | 32 | 1002.3 |